Location: *
(57.8420°S, 159.8600°W)
Time: 16:57:51
(UTC+00:00)

Cosmos 1354 Rocket - Visible Passes

Search period start: 28 September 2021 00:00
Search period end: 08 October 2021 00:00
Orbit: 765 x 782 km, 74.0° (Epoch: 27 September)

Date Brightness Start Highest point End Pass type
(mag) Time Alt. Az. Time Alt. Az. Time Alt. Az.
29 Sep 7.1 15:19:53 10° NE 15:22:55 15° E 15:25:58 10° ESE visible
30 Sep 7.5 14:47:20 10° E 14:47:58 10° E 14:48:34 10° E visible
02 Oct 6.6 15:14:18 10° NNE 15:18:30 24° E 15:22:45 10° SE visible
03 Oct 6.8 14:40:08 10° NE 14:43:27 17° E 14:46:47 10° SE visible
04 Oct 7.1 14:06:53 10° ENE 14:08:28 11° E 14:10:04 10° ESE visible
06 Oct 6.3 14:34:42 10° NNE 14:39:03 26° E 14:43:27 10° SE visible
07 Oct 6.6 14:00:26 10° NE 14:03:59 18° E 14:07:34 10° SE visible
